Wind_Speed
15 15 15 15 15 15 14 14 14 14 14 13 13 13 12 13 12 12 12 12 11 11 11 11 11 11 11 11 12 11 11 11 11 10 10 11 11 10 10 10 11 11 10 9 9 9 8 8 8
15 15 15 15 16 14 14 14 14 14 14 14 13 13 12 13 13 12 12 12 11 11 11 11 11 11 11 12 12 12 11 11 11 10 10 10 10 10 10 9 10 10 9 9 8 8 7 8 7
14 15 15 15 15 14 14 14 14 14 14 13 13 13 13 13 12 12 12 11 11 11 11 11 11 11 11 12 12 11 11 11 10 10 10 9 9 9 9 9 8 8 8 8 8 8 7 7 7
14 14 15 15 14 14 14 14 14 15 14 14 13 13 13 12 12 11 11 11 11 10 10 10 10 10 10 10 11 11 11 11 11 10 10 10 9 9 8 8 8 8 8 8 8 8 8 7 7
13 13 14 13 13 13 13 14 14 15 14 14 14 13 13 12 11 11 11 11 10 10 10 10 10 10 10 10 10 10 10 10 10 10 9 9 8 7 7 7 7 7 8 8 7 8 7 7 7
12 13 12 11 12 12 12 13 13 14 14 13 13 13 12 11 11 11 11 11 10 10 10 10 10 10 10 9 9 9 9 9 8 8 8 8 7 6 6 5 5 6 6 7 7 7 7 6 6
12 12 11 11 12 12 12 12 12 13 13 13 12 12 12 11 10 10 10 10 10 11 10 10 9 10 10 9 9 9 8 8 8 7 7 7 6 5 5 5 5 5 5 6 7 7 7 7 6
11 11 10 10 11 10 10 11 11 12 13 12 12 12 11 11 10 9 9 10 10 11 10 9 9 10 10 9 9 8 8 8 7 7 7 6 6 5 5 4 4 4 3 4 5 6 6 6 6
10 10 9 10 9 9 9 10 10 10 11 11 12 12 11 11 11 10 10 10 10 10 10 9 9 9 9 9 9 8 8 7 7 7 6 6 5 4 4 4 3 4 3 3 3 4 4 5 6
10 10 8 8 8 8 8 9 9 10 10 11 11 11 11 11 11 11 10 10 9 9 9 8 8 8 8 8 8 8 7 7 6 6 5 5 4 3 3 3 3 3 2 3 2 3 4 5 5
8 8 7 6 7 7 7 8 9 9 9 10 11 11 11 12 11 11 10 10 9 8 8 7 7 7 7 7 8 7 7 6 5 5 4 4 4 3 2 2 2 2 1 2 3 4 4 4 5
7 6 5 5 6 6 7 8 9 9 9 9 10 10 11 11 12 11 10 9 9 8 8 7 7 7 7 7 6 6 6 6 5 4 4 4 3 3 2 2 2 1 0 1 3 4 5 5 5
5 5 4 4 4 5 6 7 7 7 8 8 9 9 9 10 10 10 9 8 8 8 7 7 6 6 6 6 6 5 5 4 4 4 4 4 4 3 3 2 1 0 1 1 2 3 4 5 5
5 3 3 3 4 4 4 5 6 6 6 6 7 7 8 8 8 8 8 7 7 7 7 6 6 5 5 5 5 4 4 4 4 3 3 3 3 3 2 1 1 2 2 2 2 3 4 4 5
4 3 2 3 3 3 3 3 3 4 4 4 5 5 6 6 6 7 6 6 6 5 6 6 5 5 5 4 4 4 3 3 3 3 3 3 3 3 3 3 3 3 3 3 4 4 4 5 5
5 3 2 3 3 2 2 2 2 2 2 3 3 3 4 4 4 5 5 5 4 4 4 5 5 5 5 4 4 4 4 4 3 3 3 3 3 3 4 3 4 4 4 4 4 5 5 6 7
6 5 4 4 4 3 2 2 1 1 1 1 1 1 2 2 2 2 3 3 3 3 3 3 3 3 3 3 3 3 3 3 3 3 4 4 4 4 4 4 5 5 5 5 6 6 7 7 8
9 7 7 6 5 4 3 2 3 2 2 2 1 1 1 1 1 1 1 1 1 2 2 2 2 3 2 2 2 2 2 2 2 2 3 3 4 5 5 5 6 6 6 7 7 8 8 8 9
11 9 8 7 6 5 5 4 3 4 4 4 4 3 3 2 2 2 2 1 1 2 2 2 2 3 3 2 2 2 2 2 2 3 3 4 5 5 6 6 7 7 8 9 9 9 8 9 9
11 10 9 8 7 6 5 5 5 5 6 6 6 6 5 5 4 4 3 3 3 3 3 3 3 3 3 3 3 2 3 3 4 4 4 5 6 6 7 8 8 8 8 9 9 9 9 10 10
12 12 11 9 8 8 7 7 7 7 7 7 7 8 7 7 7 6 5 5 5 4 4 4 3 4 5 4 4 4 4 4 5 6 6 7 7 7 8 8 9 9 10 10 10 9 10 10 10
13 13 12 10 9 9 9 7 8 8 8 7 7 8 8 9 9 8 8 7 6 6 5 5 5 5 6 6 6 5 5 6 6 7 8 8 8 8 8 9 10 10 10 10 11 10 11 11 11
16 15 14 12 11 11 10 8 10 9 9 9 8 8 9 9 10 10 9 9 8 8 7 7 7 6 7 7 7 7 7 7 8 9 9 10 10 10 10 11 11 11 11 11 11 11 11 12 12
16 14 14 13 12 12 11 9 10 10 10 10 10 10 9 10 10 10 10 10 9 9 9 9 9 8 8 9 8 9 9 9 10 11 11 11 11 12 12 12 13 12 12 12 12 12 12 13 13
16 14 13 13 13 14 13 11 11 10 10 10 10 10 10 11 11 10 10 10 11 11 11 11 12 11 11 11 11 11 11 11 12 12 12 12 13 13 13 14 14 15 15 15 15 14 14 14 15
18 17 16 15 14 14 15 14 12 12 11 11 11 10 10 10 11 11 12 12 13 13 13 13 13 13 13 13 12 13 13 13 14 14 14 15 15 15 15 15 16 16 16 17 17 16 16 17 17
20 19 18 17 16 15 16 15 14 13 12 12 12 12 11 12 12 12 13 13 14 14 14 14 15 15 15 14 14 14 15 15 15 16 16 17 17 17 17 18 17 17 18 18 19 18 18 19 20
21 21 20 19 18 16 16 16 15 14 13 13 13 13 14 14 14 14 14 15 15 15 16 16 16 17 17 16 16 16 16 16 17 17 18 19 19 18 19 19 19 19 20 20 20 20 20 21 21
21 22 22 21 20 18 16 17 16 16 15 15 15 15 16 15 15 15 15 15 16 17 18 18 19 19 19 19 19 19 19 19 18 19 20 21 21 21 20 20 21 21 21 21 22 22 22 22 22
22 23 23 21 21 20 18 18 18 17 16 16 16 17 17 17 17 16 16 16 18 18 19 20 21 21 21 21 20 21 21 21 20 21 21 21 21 22 22 22 22 22 21 22 23 23 22 23 23
Wind_Direction
87 87 89 90 87 85 88 88 88 88 86 85 85 85 85 87 91 92 94 94 95 95 98 102 102 100 103 105 106 108 108 108 110 117 125 131 138 142 142 144 144 142 144 145 146 148 149 147 143
86 88 92 93 88 89 89 88 86 86 84 85 85 84 84 85 89 92 94 93 93 93 95 96 100 101 103 105 105 106 105 106 107 110 116 129 136 144 148 147 148 153 153 151 153 155 155 153 149
89 88 91 92 92 92 91 89 87 85 84 84 85 85 84 85 88 91 93 94 94 93 94 97 101 103 104 105 107 106 105 104 106 109 111 121 131 137 147 151 154 159 160 162 162 162 161 159 155
91 91 90 90 89 91 91 89 88 85 84 83 84 84 84 85 86 90 91 93 94 92 93 98 99 103 107 109 109 108 106 104 106 109 110 116 125 130 141 154 159 160 165 169 170 169 169 171 171
92 92 90 89 90 90 91 89 87 85 85 83 83 83 84 84 87 90 92 92 91 91 94 97 97 103 106 107 108 107 107 105 106 111 111 113 115 122 129 143 151 161 169 172 173 175 174 179 180
93 92 93 93 95 94 92 88 85 84 85 84 82 84 85 85 89 92 93 92 90 89 96 99 96 97 102 102 104 105 106 106 107 109 111 113 113 113 124 135 142 160 171 178 178 177 178 179 187
96 95 95 96 101 96 91 88 85 84 85 82 82 83 86 87 89 94 95 95 92 92 96 98 97 97 100 101 104 104 102 103 106 108 110 110 108 110 123 144 153 159 161 177 182 182 185 188 191
102 95 91 95 101 95 91 89 87 87 85 81 80 82 84 88 91 97 100 99 95 95 97 97 99 98 98 100 102 102 101 98 101 106 109 107 102 102 107 124 149 157 157 163 171 176 190 196 198
108 100 99 102 100 96 93 90 87 87 85 82 79 80 83 88 91 96 99 100 98 96 96 96 96 96 95 98 100 99 96 93 98 103 106 106 103 96 96 101 119 141 151 166 174 179 192 204 205
110 108 105 103 101 99 101 96 87 84 85 82 78 78 82 86 88 93 98 102 98 95 95 97 95 94 94 95 96 95 93 90 94 99 97 99 99 92 91 101 105 106 137 164 175 198 205 213 219
115 112 109 103 103 96 98 94 87 87 85 82 80 80 82 83 86 92 98 100 96 91 88 92 92 91 90 91 91 89 89 89 91 95 91 85 80 81 94 116 117 121 157 183 218 224 219 221 233
122 119 112 102 106 100 94 91 88 85 84 84 82 82 81 80 84 89 92 95 92 88 83 83 87 87 85 86 84 81 80 81 83 86 86 82 74 80 97 109 119 127 202 252 238 232 225 224 233
139 124 120 113 107 103 96 87 84 89 86 87 85 81 81 80 80 83 86 88 86 81 78 80 82 82 78 78 77 74 75 78 80 80 78 74 68 75 82 81 93 241 262 260 242 247 244 240 245
168 150 129 127 127 117 104 90 84 79 86 87 82 80 82 78 77 82 85 89 87 81 78 79 80 77 75 73 70 64 62 67 72 75 69 59 54 52 43 15 348 317 294 282 276 283 275 261 255
186 186 162 164 160 141 114 105 95 78 83 94 88 85 79 76 76 81 84 87 83 81 78 75 76 75 71 67 64 59 56 60 67 70 64 55 45 39 28 6 353 335 316 304 293 287 278 270 267
198 198 198 194 197 184 151 135 117 92 96 101 93 82 74 72 74 78 81 82 78 71 69 72 72 71 67 61 56 57 51 50 59 57 48 33 15 8 356 347 341 336 325 309 303 294 286 277 274
210 205 211 214 218 219 187 183 196 115 133 126 100 58 54 53 60 64 68 84 74 57 52 55 58 58 54 52 49 50 44 41 42 35 29 25 11 1 356 344 339 334 327 313 303 295 289 282 278
215 213 217 220 220 220 215 222 230 246 257 249 240 269 305 354 353 5 19 51 51 30 29 35 33 31 22 23 23 21 22 25 27 17 12 6 359 354 346 333 332 329 325 319 310 300 293 288 286
218 219 223 229 234 230 232 241 248 249 255 257 253 260 264 272 286 291 306 315 316 332 340 350 357 0 357 360 5 3 354 351 353 353 349 346 342 341 338 327 320 320 318 318 312 303 295 294 291
219 221 230 233 237 239 245 255 259 254 257 263 253 254 267 267 269 269 269 291 297 298 310 314 319 331 340 340 338 333 330 330 327 327 328 328 328 331 336 331 322 320 317 313 310 302 299 298 297
225 226 230 235 241 248 255 265 266 263 260 264 259 256 262 264 267 269 270 276 284 285 286 286 292 300 309 316 314 312 315 317 314 312 314 317 321 325 326 325 325 322 323 320 315 308 304 299 295
228 230 233 239 246 253 256 264 271 269 266 262 262 260 260 261 264 267 270 271 273 281 277 276 284 291 298 300 300 299 303 303 303 302 304 306 312 317 319 321 322 319 318 318 317 307 304 302 298
224 230 235 242 249 251 258 258 269 273 273 265 266 268 266 262 261 263 265 269 270 276 281 280 283 288 292 295 294 294 295 297 295 294 295 298 305 310 312 313 317 316 312 312 314 309 300 299 298
229 235 240 245 252 254 253 256 266 271 273 267 268 269 268 265 266 266 264 265 267 272 281 286 288 287 288 291 291 293 292 297 300 299 297 297 299 303 307 309 308 308 307 306 307 308 306 301 299
229 233 241 247 250 256 254 256 259 267 270 270 269 267 266 265 265 265 264 263 263 266 273 278 284 285 287 288 288 289 293 296 298 299 298 296 297 299 301 301 299 300 305 305 302 301 301 303 302
228 228 233 240 247 256 258 258 260 265 270 270 268 266 267 267 266 265 267 268 266 268 270 274 277 280 285 287 286 287 289 292 294 297 299 296 297 298 298 298 298 299 302 305 305 297 298 300 300
230 230 234 242 248 253 259 260 265 266 268 271 268 268 269 269 270 269 269 269 268 270 273 274 274 277 282 284 284 285 287 290 293 295 298 298 296 295 296 297 297 296 299 300 302 301 297 299 298
235 233 236 240 247 251 259 263 262 267 266 266 265 269 270 269 270 269 271 268 267 270 272 275 277 277 280 281 283 286 288 290 292 292 293 295 295 293 293 294 295 295 296 296 296 296 298 297 296
239 238 239 241 245 250 257 263 263 264 263 262 265 266 266 267 270 271 271 271 271 274 273 273 276 276 278 278 281 284 286 287 290 291 294 292 290 290 288 290 293 293 293 293 292 293 294 297 297
237 238 240 244 250 252 254 261 265 264 261 260 262 264 264 263 266 266 268 269 271 273 275 273 274 274 275 274 277 281 284 286 288 290 293 294 293 293 290 289 292 293 293 293 292 292 293 294 295
Height
5904 5904 5904 5905 5906 5906 5904 5904 5903 5902 5901 5900 5900 5899 5898 5898 5899 5900 5898 5896 5896 5895 5894 5894 5894 5894 5894 5893 5893 5893 5892 5892 5891 5891 5892 5892 5893 5894 5895 5895 5896 5897 5898 5899 5900 5901 5901 5902 5903
5907 5907 5907 5908 5908 5908 5907 5906 5905 5904 5903 5902 5901 5900 5900 5899 5899 5899 5898 5897 5897 5897 5896 5896 5895 5895 5895 5895 5895 5894 5894 5893 5893 5893 5893 5893 5894 5895 5895 5896 5897 5898 5899 5899 5900 5901 5902 5903 5903
5908 5909 5910 5910 5910 5910 5909 5908 5906 5905 5904 5903 5903 5902 5902 5901 5901 5900 5899 5899 5899 5898 5897 5897 5896 5897 5897 5896 5896 5896 5896 5895 5895 5894 5894 5894 5895 5895 5896 5897 5897 5898 5899 5900 5900 5901 5902 5903 5904
5911 5912 5912 5913 5912 5911 5910 5909 5908 5907 5906 5905 5904 5904 5903 5902 5902 5901 5901 5900 5900 5900 5899 5899 5898 5898 5898 5898 5898 5897 5897 5897 5897 5897 5896 5896 5896 5896 5897 5897 5898 5898 5899 5900 5900 5901 5902 5903 5904
5913 5913 5914 5914 5914 5913 5912 5911 5910 5909 5908 5907 5906 5905 5904 5904 5903 5903 5903 5902 5902 5901 5901 5901 5900 5900 5900 5900 5899 5899 5899 5899 5898 5898 5898 5898 5898 5897 5897 5897 5898 5899 5899 5900 5901 5901 5902 5903 5904
5915 5915 5917 5916 5916 5915 5914 5913 5912 5911 5910 5909 5908 5907 5906 5905 5905 5905 5904 5904 5903 5903 5903 5902 5902 5902 5902 5901 5901 5901 5900 5900 5900 5900 5899 5899 5899 5898 5898 5898 5899 5899 5899 5900 5901 5901 5902 5903 5903
5918 5918 5918 5918 5917 5917 5916 5914 5913 5912 5911 5911 5909 5908 5907 5906 5906 5906 5906 5905 5905 5904 5904 5904 5904 5904 5903 5903 5903 5902 5902 5901 5901 5901 5900 5900 5900 5900 5899 5899 5899 5899 5899 5900 5901 5901 5902 5902 5902
5919 5920 5920 5920 5919 5919 5918 5916 5915 5914 5913 5912 5911 5910 5909 5908 5908 5907 5907 5907 5907 5906 5906 5906 5905 5905 5905 5905 5904 5904 5903 5903 5902 5902 5901 5901 5901 5900 5900 5899 5899 5899 5900 5900 5901 5901 5901 5902 5902
5920 5923 5922 5921 5921 5920 5919 5918 5917 5916 5915 5914 5913 5912 5911 5910 5909 5909 5909 5909 5909 5908 5908 5908 5907 5907 5906 5906 5906 5905 5904 5904 5903 5903 5902 5902 5902 5901 5900 5900 5900 5900 5899 5900 5900 5901 5901 5902 5902
5922 5924 5923 5923 5922 5921 5920 5919 5918 5918 5917 5916 5915 5914 5912 5912 5911 5911 5911 5911 5911 5910 5910 5909 5909 5908 5908 5907 5907 5906 5906 5905 5904 5904 5903 5903 5902 5902 5901 5900 5900 5900 5900 5899 5900 5900 5901 5901 5901
5923 5924 5924 5923 5923 5922 5921 5920 5920 5919 5918 5918 5917 5916 5915 5914 5913 5913 5913 5913 5912 5912 5912 5911 5910 5910 5909 5909 5908 5908 5907 5906 5905 5905 5904 5904 5903 5902 5902 5901 5901 5901 5900 5900 5900 5900 5900 5900 5901
5924 5924 5924 5924 5924 5923 5922 5922 5921 5921 5920 5919 5918 5918 5917 5916 5915 5915 5914 5914 5914 5914 5913 5912 5912 5911 5911 5910 5909 5908 5908 5907 5906 5906 5905 5904 5904 5903 5903 5902 5901 5901 5901 5900 5900 5899 5899 5900 5900
5925 5925 5925 5925 5924 5924 5924 5923 5923 5922 5921 5921 5920 5919 5919 5918 5917 5917 5916 5916 5916 5915 5914 5914 5913 5912 5912 5911 5910 5909 5908 5908 5907 5907 5906 5905 5904 5903 5903 5902 5901 5901 5901 5900 5900 5899 5899 5899 5899
5925 5925 5925 5925 5925 5925 5925 5924 5924 5923 5923 5922 5922 5921 5920 5920 5919 5918 5917 5917 5917 5916 5916 5915 5914 5913 5912 5912 5911 5910 5909 5908 5907 5907 5906 5905 5904 5904 5903 5902 5901 5901 5900 5900 5899 5899 5898 5898 5898
5925 5926 5926 5926 5926 5925 5926 5926 5925 5924 5924 5923 5923 5922 5922 5921 5920 5920 5919 5918 5918 5917 5917 5916 5915 5914 5913 5912 5911 5910 5909 5908 5907 5906 5906 5905 5904 5904 5903 5902 5901 5900 5900 5899 5899 5898 5897 5897 5897
5925 5926 5927 5927 5926 5926 5928 5927 5926 5925 5925 5924 5924 5923 5923 5922 5921 5921 5920 5919 5919 5918 5917 5917 5916 5915 5914 5913 5912 5911 5910 5909 5908 5907 5906 5905 5905 5904 5903 5902 5901 5900 5899 5899 5898 5897 5896 5896 5896
5925 5926 5927 5927 5926 5926 5926 5926 5926 5925 5925 5925 5924 5924 5923 5922 5922 5921 5920 5920 5919 5919 5918 5917 5916 5915 5914 5913 5912 5911 5910 5909 5908 5907 5906 5905 5905 5904 5903 5902 5901 5899 5899 5898 5897 5896 5895 5894 5894
5924 5925 5926 5926 5926 5925 5926 5926 5925 5925 5925 5925 5924 5924 5923 5923 5922 5921 5921 5920 5920 5919 5918 5917 5916 5915 5914 5913 5912 5911 5910 5909 5908 5907 5906 5906 5905 5903 5902 5901 5900 5899 5898 5897 5895 5894 5893 5892 5892
5922 5923 5924 5925 5925 5925 5925 5925 5924 5924 5924 5924 5924 5923 5923 5923 5922 5922 5921 5920 5920 5919 5918 5917 5916 5915 5914 5914 5912 5912 5911 5910 5908 5907 5906 5905 5904 5903 5902 5900 5899 5898 5896 5895 5893 5892 5891 5890 5890
5920 5921 5923 5924 5924 5924 5924 5924 5924 5923 5923 5923 5923 5922 5922 5922 5922 5921 5921 5920 5920 5919 5918 5917 5916 5915 5914 5913 5912 5911 5910 5909 5908 5907 5906 5905 5903 5902 5901 5899 5898 5896 5895 5893 5891 5890 5889 5888 5887
5918 5919 5921 5921 5922 5922 5923 5923 5923 5922 5922 5921 5921 5921 5921 5921 5921 5920 5920 5919 5919 5918 5917 5916 5916 5915 5914 5913 5912 5911 5910 5909 5908 5907 5905 5904 5903 5901 5900 5898 5897 5895 5894 5892 5890 5888 5887 5886 5885
5915 5917 5918 5919 5920 5921 5922 5923 5922 5920 5920 5920 5920 5920 5920 5920 5920 5919 5919 5918 5918 5917 5916 5915 5914 5914 5913 5912 5911 5910 5909 5908 5907 5906 5904 5903 5902 5900 5898 5897 5895 5894 5892 5890 5888 5886 5885 5884 5883
5912 5913 5915 5916 5918 5919 5919 5920 5921 5919 5918 5918 5918 5918 5918 5918 5918 5918 5917 5917 5916 5916 5915 5914 5913 5912 5911 5910 5909 5909 5908 5907 5905 5904 5903 5901 5900 5898 5897 5895 5893 5892 5890 5888 5886 5884 5883 5882 5880
5908 5911 5912 5913 5915 5917 5917 5918 5919 5917 5916 5916 5916 5916 5916 5916 5916 5915 5915 5915 5914 5914 5913 5913 5912 5911 5910 5909 5908 5907 5906 5905 5903 5902 5901 5899 5898 5896 5895 5893 5891 5889 5887 5885 5884 5882 5880 5879 5878
5905 5909 5911 5913 5914 5915 5914 5914 5915 5914 5913 5913 5913 5913 5913 5913 5913 5913 5913 5912 5912 5911 5911 5911 5910 5909 5908 5907 5906 5905 5904 5902 5901 5900 5898 5897 5895 5894 5892 5890 5888 5886 5884 5882 5881 5879 5878 5876 5874
5902 5905 5909 5911 5912 5913 5911 5911 5912 5911 5910 5910 5910 5910 5910 5910 5910 5910 5910 5910 5909 5909 5908 5908 5907 5906 5905 5904 5903 5902 5901 5900 5899 5897 5896 5894 5892 5891 5889 5887 5885 5883 5881 5879 5877 5875 5874 5872 5870
5898 5900 5904 5907 5907 5908 5908 5908 5908 5907 5907 5907 5907 5907 5907 5907 5907 5907 5907 5906 5906 5906 5905 5905 5904 5903 5902 5901 5900 5899 5898 5897 5896 5894 5893 5891 5889 5887 5885 5883 5881 5879 5877 5876 5873 5871 5869 5868 5865
5893 5896 5899 5901 5902 5904 5905 5904 5905 5904 5904 5904 5904 5904 5904 5904 5904 5904 5903 5903 5903 5902 5901 5901 5900 5899 5898 5898 5897 5896 5895 5893 5892 5890 5889 5887 5885 5883 5881 5879 5877 5875 5873 5871 5869 5867 5865 5863 5861
5889 5891 5893 5896 5898 5900 5902 5904 5900 5900 5900 5900 5900 5900 5900 5900 5900 5900 5899 5899 5898 5898 5897 5897 5896 5895 5894 5893 5892 5892 5890 5889 5888 5886 5884 5882 5880 5878 5876 5874 5872 5870 5868 5866 5864 5862 5860 5858 5856
5883 5886 5889 5892 5892 5894 5896 5900 5895 5896 5896 5896 5896 5896 5895 5895 5896 5895 5895 5895 5894 5893 5893 5892 5891 5890 5889 5888 5888 5887 5886 5884 5883 5881 5879 5877 5874 5872 5870 5868 5867 5864 5862 5861 5859 5857 5855 5853 5851